Home > Weather > Salzwedel > Past weeks

Flag for Germany Past Weather in Salzwedel, Saxony-Anhalt, Germany — Yesterday and Last 2 Weeks

Now
59 °F

Scattered clouds.


Feels Like: 57 °F
Forecast: 56 / 68 °F
Wind: 10 mph from Southwest

Location: Fassberg

Current Time: Jun 27, 2016 at 9:47:40 AM

Latest Report: Jun 27, 2016 at 8:20 AM


Visibility: N/A

Pressure: 30.04 "Hg

Humidity: 82%

Dew Point: 54 °F

Location of SalzwedelLocation

Past Weather in Salzwedel — Graph

°F

Salzwedel Temperature Yesterday

Maximum temperature yesterday: 70 °F (at 6:20 PM)
Minimum temperature yesterday: 54 °F (at 5:20 AM)
Average temperature yesterday: 61 °F

High & Low Weather Summary for the Past Weeks

 TemperatureHumidityPressure
High90 °F (Jun 23, 3:20 PM)100% (Jun 14, 2:20 AM)30.24 "Hg (Jun 14, 2:20 AM)
Low41 °F (Jun 20, 5:20 AM)38% (Jun 20, 2:20 PM)29.45 "Hg (Jun 14, 3:20 PM)
Average62 °F79%29.87 "Hg
* Reported Jun 12 8:20 AM — Jun 27 8:20 AM, Salzwedel, Weather by CustomWeather, © 2016

Note: Actual official high and low records may vary slightly from our data, if they occured in-between our weather recording intervals... More about our weather records

Advertising

Salzwedel Weather History for the Previous 24 Hours

Scroll right to see more
 ConditionsComfort  
Time TempWeatherWind HumidityBarometerVisibility
8:20 AM
Mon, Jun 27
59 °FScattered clouds.10 mph82%30.04 "HgN/A
7:20 AM55 °FPassing clouds.6 mph88%30.04 "HgN/A
6:20 AM54 °FPassing clouds.7 mph88%30.04 "HgN/A
5:20 AM52 °FFog.5 mph94%30.04 "Hg5 mi
4:20 AM52 °FFog.6 mph94%30.04 "HgN/A
3:20 AM54 °FFog.3 mph88%30.04 "HgN/A
2:20 AM54 °FFog.6 mph88%30.04 "HgN/A
1:20 AM55 °FFog.6 mph88%30.04 "HgN/A
12:20 AM55 °FFog.5 mph88%30.04 "HgN/A
11:20 PM
Sun, Jun 26
57 °FPassing clouds.3 mph82%30.04 "HgN/A
10:20 PM61 °FPassing clouds.7 mph72%30.01 "HgN/A
9:20 PM63 °FPassing clouds.6 mph59%30.01 "HgN/A
8:20 PM66 °FScattered clouds.8 mph52%30.01 "HgN/A
7:20 PM68 °FScattered clouds.13 mph49%30.01 "HgN/A
6:20 PM70 °FScattered clouds.12 mph50%30.01 "HgN/A
5:20 PM68 °FBroken clouds.10 mph53%30.01 "HgN/A
4:20 PM68 °FBroken clouds.13 mph53%30.01 "HgN/A
3:20 PM68 °FBroken clouds.12 mph53%30.01 "HgN/A
2:20 PM68 °FScattered clouds.14 mph49%30.01 "HgN/A
1:20 PM66 °FPartly sunny.13 mph56%30.01 "HgN/A
12:20 PM64 °FScattered clouds.13 mph60%30.01 "HgN/A
11:20 AM64 °FScattered clouds.14 mph64%30.01 "HgN/A
10:20 AM63 °FScattered clouds.15 mph68%30.01 "HgN/A
9:20 AM61 °FScattered clouds.14 mph72%30.01 "HgN/A
Weather by CustomWeather, © 2016

See weather overviewHow to use our weather pages